QPF
0.00 0.00 0.00 0.00 0.00 0.00 0.00 0.00 0.00 0.00 0.00 0.00 0.00 0.00 0.00 0.01 0.03 0.05 0.03 0.05 0.09 0.09 0.10 0.11 0.13 0.14 0.10 0.05 0.03 0.01 0.01 0.00 0.00 0.00 0.01 0.02 0.05 0.06 0.03 0.01 0.00 0.00 0.00
0.00 0.00 0.00 0.00 0.00 0.00 0.00 0.00 0.00 0.00 0.00 0.00 0.00 0.00 0.01 0.04 0.05 0.05 0.06 0.09 0.10 0.10 0.12 0.12 0.10 0.07 0.05 0.02 0.02 0.02 0.01 0.00 0.00 0.01 0.00 0.00 0.01 0.02 0.01 0.00 0.00 0.00 0.00
0.00 0.00 0.00 0.00 0.00 0.00 0.00 0.00 0.00 0.00 0.00 0.00 0.00 0.01 0.01 0.03 0.04 0.04 0.05 0.05 0.07 0.07 0.09 0.09 0.08 0.10 0.10 0.12 0.11 0.06 0.04 0.02 0.02 0.02 0.01 0.00 0.00 0.00 0.00 0.00 0.00 0.00 0.00
0.00 0.00 0.00 0.00 0.00 0.00 0.00 0.00 0.00 0.00 0.00 0.00 0.00 0.00 0.00 0.00 0.01 0.03 0.02 0.01 0.02 0.02 0.02 0.04 0.05 0.07 0.09 0.14 0.14 0.10 0.09 0.07 0.03 0.01 0.01 0.00 0.00 0.00 0.00 0.00 0.00 0.00 0.00
0.00 0.00 0.00 0.00 0.00 0.00 0.00 0.00 0.00 0.00 0.00 0.00 0.00 0.00 0.00 0.00 0.00 0.00 0.01 0.02 0.02 0.01 0.00 0.02 0.03 0.04 0.06 0.09 0.13 0.08 0.06 0.01 0.01 0.02 0.01 0.00 0.00 0.00 0.00 0.00 0.00 0.00 0.01
0.00 0.00 0.00 0.00 0.00 0.00 0.01 0.02 0.00 0.00 0.00 0.00 0.00 0.00 0.00 0.00 0.00 0.00 0.01 0.02 0.01 0.01 0.02 0.05 0.00 0.00 0.00 0.01 0.04 0.11 0.12 0.01 0.00 0.00 0.00 0.00 0.00 0.01 0.03 0.04 0.02 0.02 0.02
0.00 0.00 0.00 0.00 0.00 0.01 0.05 0.02 0.01 0.00 0.00 0.00 0.00 0.00 0.00 0.01 0.00 0.00 0.00 0.02 0.00 0.11 0.15 0.15 0.05 0.01 0.00 0.00 0.00 0.02 0.02 0.05 0.05 0.05 0.01 0.01 0.01 0.01 0.01 0.03 0.01 0.00 0.00
0.00 0.00 0.00 0.00 0.01 0.04 0.03 0.02 0.03 0.04 0.01 0.00 0.00 0.00 0.02 0.06 0.01 0.01 0.00 0.01 0.03 0.06 0.08 0.06 0.11 0.07 0.01 0.00 0.00 0.00 0.00 0.00 0.02 0.05 0.10 0.09 0.04 0.03 0.00 0.02 0.02 0.02 0.01
0.00 0.00 0.00 0.00 0.01 0.06 0.09 0.15 0.20 0.16 0.04 0.00 0.00 0.01 0.05 0.07 0.04 0.06 0.02 0.00 0.04 0.02 0.00 0.00 0.05 0.09 0.05 0.02 0.01 0.01 0.03 0.00 0.00 0.00 0.04 0.11 0.03 0.04 0.07 0.05 0.03 0.00 0.00
0.00 0.00 0.00 0.03 0.05 0.13 0.19 0.26 0.18 0.14 0.09 0.03 0.01 0.01 0.02 0.07 0.10 0.12 0.07 0.01 0.01 0.01 0.01 0.00 0.00 0.01 0.02 0.02 0.04 0.06 0.05 0.01 0.00 0.00 0.01 0.01 0.03 0.02 0.02 0.01 0.00 0.00 0.00
0.00 0.00 0.01 0.03 0.09 0.20 0.20 0.20 0.18 0.22 0.11 0.04 0.01 0.01 0.06 0.15 0.18 0.20 0.08 0.02 0.01 0.00 0.00 0.00 0.00 0.04 0.05 0.04 0.03 0.14 0.16 0.13 0.02 0.01 0.02 0.01 0.01 0.00 0.00 0.00 0.01 0.00 0.00
0.00 0.00 0.01 0.04 0.08 0.17 0.16 0.25 0.32 0.13 0.06 0.04 0.03 0.03 0.06 0.17 0.38 0.12 0.19 0.08 0.00 0.00 0.00 0.00 0.00 0.05 0.06 0.02 0.01 0.08 0.09 0.04 0.01 0.00 0.00 0.00 0.00 0.00 0.00 0.00 0.00 0.01 0.01
0.00 0.01 0.01 0.04 0.04 0.16 0.33 0.19 0.07 0.02 0.01 0.02 0.03 0.00 0.01 0.04 0.08 0.09 0.11 0.17 0.05 0.00 0.01 0.01 0.04 0.07 0.03 0.00 0.00 0.00 0.00 0.01 0.04 0.01 0.00 0.00 0.00 0.00 0.00 0.00 0.00 0.00 0.00
0.00 0.00 0.02 0.05 0.07 0.12 0.14 0.04 0.02 0.01 0.02 0.04 0.09 0.04 0.03 0.02 0.04 0.02 0.07 0.10 0.13 0.05 0.01 0.01 0.02 0.01 0.00 0.00 0.00 0.00 0.00 0.00 0.01 0.00 0.00 0.00 0.00 0.00 0.00 0.00 0.00 0.00 0.00
0.01 0.03 0.05 0.06 0.09 0.16 0.16 0.06 0.03 0.00 0.01 0.04 0.11 0.09 0.04 0.04 0.01 0.01 0.00 0.02 0.03 0.06 0.03 0.05 0.02 0.00 0.00 0.00 0.01 0.01 0.00 0.00 0.00 0.00 0.00 0.00 0.00 0.00 0.00 0.00 0.00 0.00 0.00
0.02 0.05 0.07 0.08 0.10 0.20 0.22 0.04 0.04 0.08 0.08 0.15 0.28 0.11 0.04 0.01 0.00 0.00 0.00 0.00 0.00 0.00 0.01 0.05 0.06 0.02 0.01 0.03 0.02 0.03 0.01 0.00 0.00 0.00 0.00 0.00 0.00 0.00 0.00 0.00 0.00 0.00 0.00
0.05 0.06 0.09 0.09 0.18 0.21 0.11 0.05 0.11 0.30 0.20 0.06 0.15 0.05 0.02 0.00 0.00 0.00 0.00 0.00 0.00 0.00 0.02 0.03 0.05 0.04 0.03 0.04 0.02 0.01 0.00 0.00 0.00 0.00 0.00 0.00 0.00 0.00 0.00 0.00 0.00 0.00 0.00
0.04 0.03 0.11 0.11 0.21 0.18 0.08 0.14 0.19 0.17 0.23 0.17 0.13 0.04 0.00 0.00 0.00 0.00 0.00 0.00 0.00 0.00 0.01 0.02 0.04 0.05 0.04 0.03 0.00 0.00 0.00 0.00 0.00 0.00 0.00 0.00 0.00 0.00 0.00 0.00 0.00 0.00 0.00
0.02 0.07 0.10 0.05 0.15 0.11 0.13 0.11 0.12 0.24 0.24 0.12 0.07 0.09 0.01 0.00 0.00 0.00 0.00 0.00 0.00 0.00 0.00 0.00 0.00 0.00 0.00 0.00 0.00 0.00 0.00 0.00 0.00 0.00 0.00 0.00 0.00 0.00 0.00 0.00 0.00 0.00 0.00
0.04 0.03 0.06 0.05 0.05 0.05 0.06 0.11 0.12 0.18 0.16 0.14 0.17 0.17 0.10 0.02 0.00 0.00 0.00 0.00 0.00 0.00 0.00 0.00 0.00 0.00 0.00 0.00 0.00 0.00 0.00 0.00 0.00 0.00 0.00 0.00 0.00 0.00 0.00 0.00 0.00 0.00 0.00
0.02 0.05 0.10 0.09 0.15 0.16 0.11 0.14 0.19 0.13 0.11 0.12 0.11 0.21 0.12 0.04 0.01 0.00 0.00 0.00 0.00 0.00 0.00 0.00 0.00 0.00 0.00 0.00 0.00 0.00 0.00 0.00 0.00 0.00 0.00 0.00 0.00 0.00 0.00 0.00 0.00 0.00 0.00
0.07 0.18 0.18 0.24 0.20 0.20 0.20 0.20 0.20 0.16 0.10 0.04 0.05 0.10 0.10 0.05 0.01 0.01 0.00 0.00 0.00 0.00 0.00 0.00 0.00 0.00 0.00 0.00 0.00 0.00 0.00 0.00 0.00 0.00 0.00 0.00 0.01 0.00 0.01 0.02 0.02 0.00 0.00
0.13 0.17 0.17 0.22 0.20 0.10 0.13 0.19 0.14 0.07 0.06 0.04 0.04 0.04 0.03 0.02 0.04 0.02 0.01 0.00 0.00 0.00 0.00 0.00 0.00 0.00 0.00 0.00 0.00 0.00 0.00 0.00 0.00 0.00 0.00 0.00 0.01 0.01 0.01 0.02 0.02 0.01 0.00
0.00 0.01 0.07 0.12 0.13 0.07 0.11 0.11 0.11 0.08 0.03 0.02 0.03 0.08 0.05 0.01 0.00 0.01 0.01 0.02 0.01 0.01 0.00 0.00 0.00 0.00 0.00 0.03 0.01 0.01 0.01 0.03 0.03 0.04 0.05 0.09 0.08 0.06 0.03 0.05 0.06 0.06 0.04
0.00 0.00 0.00 0.02 0.05 0.08 0.04 0.03 0.04 0.04 0.01 0.03 0.01 0.05 0.09 0.04 0.01 0.01 0.00 0.01 0.02 0.04 0.07 0.07 0.03 0.02 0.04 0.06 0.05 0.05 0.03 0.04 0.10 0.12 0.07 0.05 0.05 0.04 0.04 0.06 0.06 0.05 0.03
0.00 0.00 0.00 0.00 0.00 0.01 0.02 0.03 0.02 0.01 0.00 0.00 0.01 0.02 0.03 0.01 0.00 0.00 0.01 0.01 0.00 0.01 0.02 0.01 0.01 0.02 0.03 0.03 0.02 0.04 0.06 0.06 0.09 0.13 0.12 0.06 0.04 0.04 0.06 0.06 0.05 0.03 0.02
MSLP
1005.76 1005.95 1006.25 1006.59 1006.78 1006.98 1007.12 1007.20 1007.21 1007.26 1007.26 1007.30 1007.34 1007.35 1007.19 1007.18 1007.12 1007.10 1007.37 1007.51 1007.42 1007.57 1007.59 1007.60 1007.65 1007.90 1008.34 1008.80 1009.27 1009.75 1010.41 1011.21 1011.55 1011.61 1011.68 1011.83 1012.13 1012.26 1012.65 1013.17 1013.77 1014.56 1015.30
1005.55 1005.75 1005.91 1006.09 1006.32 1006.42 1006.60 1006.66 1006.68 1006.84 1006.94 1006.90 1006.83 1006.82 1006.76 1006.65 1006.60 1006.68 1006.80 1007.02 1007.12 1007.11 1007.03 1007.16 1007.16 1007.70 1008.13 1008.57 1008.96 1009.36 1010.01 1010.57 1010.96 1011.11 1011.32 1011.50 1011.65 1012.07 1012.62 1013.55 1014.04 1014.57 1015.36
1005.11 1005.48 1005.60 1005.66 1005.75 1005.82 1005.93 1005.97 1006.01 1006.21 1006.36 1006.25 1006.31 1006.27 1006.31 1006.33 1006.22 1006.24 1006.34 1006.41 1006.53 1006.56 1006.77 1007.08 1007.28 1007.62 1007.93 1008.31 1008.69 1009.16 1009.51 1009.79 1010.06 1010.32 1010.91 1011.34 1011.66 1012.18 1012.99 1013.77 1014.25 1014.84 1015.10
1004.29 1004.84 1004.95 1004.97 1004.96 1004.99 1005.04 1005.22 1005.43 1005.66 1005.67 1005.61 1005.72 1005.93 1006.22 1006.26 1006.09 1005.98 1005.95 1006.03 1006.16 1006.46 1006.73 1007.03 1007.28 1007.60 1007.86 1008.04 1008.31 1008.69 1008.91 1009.10 1009.24 1009.88 1010.59 1010.98 1011.65 1012.49 1012.91 1013.73 1014.65 1015.04 1015.24
1003.32 1003.87 1004.12 1004.22 1004.10 1004.25 1004.44 1004.61 1004.93 1005.04 1005.16 1005.06 1005.27 1005.71 1006.12 1006.27 1006.08 1006.00 1005.96 1006.02 1006.10 1006.24 1006.46 1006.81 1007.07 1007.29 1007.51 1007.72 1007.95 1008.30 1008.76 1008.92 1008.83 1009.09 1009.71 1010.60 1011.68 1012.56 1013.09 1013.73 1014.24 1014.72 1014.84
1002.37 1003.06 1003.43 1003.66 1003.80 1003.89 1003.81 1004.16 1004.08 1004.28 1004.63 1004.83 1005.00 1005.33 1005.39 1005.51 1005.49 1005.64 1005.68 1005.63 1005.79 1006.12 1006.59 1006.96 1007.16 1007.28 1007.50 1007.83 1008.06 1008.04 1008.30 1008.64 1008.97 1009.29 1009.72 1010.51 1011.18 1012.12 1012.72 1013.39 1014.00 1014.51 1014.71
1001.79 1002.47 1002.82 1003.04 1003.07 1003.06 1003.65 1003.15 1003.67 1003.66 1004.04 1004.18 1004.58 1004.82 1004.73 1004.77 1004.93 1005.18 1005.48 1005.47 1005.80 1006.02 1006.34 1006.66 1006.74 1007.18 1007.64 1007.76 1007.74 1007.75 1007.92 1008.26 1008.45 1008.84 1009.37 1009.95 1010.93 1011.24 1011.95 1012.74 1013.23 1013.58 1013.13
1002.03 1002.12 1002.24 1002.14 1002.28 1002.15 1002.71 1002.77 1002.90 1003.28 1003.78 1003.86 1003.61 1003.97 1004.17 1004.28 1004.45 1004.71 1005.20 1005.47 1005.53 1005.85 1005.94 1006.15 1006.47 1006.80 1007.25 1007.34 1007.64 1007.73 1008.05 1008.29 1008.53 1008.60 1009.00 1009.37 1010.03 1010.57 1010.84 1011.36 1012.10 1012.62 1012.81
1002.24 1002.45 1002.34 1002.12 1002.02 1001.93 1001.83 1002.32 1002.06 1003.32 1003.20 1003.73 1003.24 1003.05 1003.21 1003.51 1003.84 1004.16 1004.77 1005.14 1005.34 1005.60 1005.83 1006.10 1006.22 1006.68 1006.98 1007.17 1007.42 1007.57 1007.89 1008.22 1008.33 1008.21 1008.41 1008.59 1008.98 1009.61 1010.03 1011.11 1011.86 1012.44 1012.60
1002.62 1002.45 1002.34 1002.13 1001.91 1001.61 1001.24 1001.86 1002.55 1002.13 1003.21 1003.30 1002.79 1002.31 1002.34 1002.57 1003.16 1003.70 1004.21 1004.28 1004.95 1005.36 1005.84 1006.22 1006.39 1006.70 1006.88 1007.14 1007.35 1007.35 1007.64 1007.84 1007.97 1008.19 1008.42 1008.53 1008.93 1009.42 1009.80 1010.41 1010.93 1011.43 1011.74
1002.79 1002.54 1002.24 1001.99 1001.68 1001.18 1000.69 1000.77 1001.73 1002.11 1001.03 1001.88 1001.93 1001.71 1001.67 1001.74 1002.28 1003.29 1003.85 1003.75 1004.31 1004.90 1005.52 1005.98 1006.24 1006.55 1006.74 1006.96 1007.18 1007.19 1007.27 1007.41 1007.72 1007.99 1008.35 1008.57 1008.89 1009.24 1009.71 1010.05 1010.22 1010.51 1011.05
1002.98 1002.60 1002.21 1001.84 1001.40 1001.01 1000.59 1000.32 1000.63 1001.37 1002.02 1001.82 1001.59 1001.49 1000.96 1000.95 1001.72 1002.62 1002.30 1003.61 1003.91 1004.39 1004.91 1005.28 1005.43 1005.83 1006.33 1006.60 1006.99 1007.16 1007.35 1007.35 1007.71 1007.83 1008.14 1008.45 1008.75 1009.04 1009.24 1009.55 1009.79 1010.09 1010.74
1002.72 1002.36 1001.91 1001.45 1001.04 1000.60 1000.36 1000.15 1000.39 1000.62 1000.69 1000.68 1000.91 1000.51 1000.26 1000.39 1000.91 1001.83 1002.61 1003.19 1003.70 1003.94 1004.27 1004.61 1005.09 1005.32 1005.90 1006.27 1006.76 1006.90 1007.07 1007.22 1007.33 1007.53 1007.66 1007.84 1008.04 1008.28 1008.66 1009.14 1009.47 1009.77 1010.19
1002.52 1002.07 1001.65 1001.32 1000.90 1000.46 1000.01 999.79 999.65 999.77 999.71 999.76 999.83 1000.04 999.53 999.77 1000.67 1001.53 1002.39 1002.84 1003.34 1003.85 1003.99 1004.49 1004.85 1005.31 1005.64 1005.69 1006.30 1006.77 1006.73 1006.67 1006.89 1006.96 1006.98 1006.95 1007.42 1007.84 1008.30 1008.62 1009.18 1009.51 1010.00
1002.12 1001.66 1001.36 1000.96 1000.49 999.85 999.32 999.05 999.17 998.87 998.56 998.82 999.12 999.32 999.13 999.19 999.91 1000.60 1001.33 1002.05 1002.60 1003.28 1003.68 1004.15 1004.57 1005.06 1005.31 1005.42 1005.63 1006.03 1006.23 1006.17 1006.12 1006.22 1006.27 1006.41 1006.62 1006.92 1007.43 1007.78 1008.45 1009.09 1009.63
1001.84 1001.36 1000.86 1000.42 999.80 999.21 998.78 998.42 998.29 998.36 998.15 998.57 998.69 999.20 998.40 997.89 999.25 1000.09 1000.84 1001.44 1002.17 1002.89 1003.38 1003.43 1003.80 1004.03 1004.22 1004.47 1004.74 1005.20 1005.49 1005.63 1005.62 1005.79 1005.90 1006.06 1006.21 1006.41 1006.72 1007.10 1007.63 1008.38 1008.93
1001.35 1000.87 1000.19 999.76 999.06 998.54 998.06 998.12 998.45 998.65 998.80 998.84 998.74 998.78 998.44 998.77 999.27 999.92 1000.68 1001.35 1001.94 1002.64 1002.74 1002.98 1003.18 1003.30 1003.37 1003.68 1004.10 1004.50 1004.73 1004.86 1004.79 1005.10 1005.45 1005.63 1005.83 1006.07 1006.26 1006.43 1006.79 1007.26 1007.87
1000.78 999.97 999.62 999.19 998.47 997.95 997.73 997.94 998.09 998.37 998.60 998.65 999.07 998.76 998.72 999.44 999.54 999.92 1000.61 1001.50 1002.48 1002.41 1002.20 1002.22 1002.46 1002.62 1002.80 1003.07 1003.34 1003.47 1003.71 1004.07 1004.24 1004.51 1004.83 1005.11 1005.33 1005.65 1005.93 1006.15 1006.17 1006.47 1006.86
1000.33 999.93 999.25 998.71 998.05 997.57 997.08 997.18 997.04 997.27 997.84 997.77 997.46 999.00 999.39 999.81 1000.18 1000.28 1000.18 1000.51 1000.97 1001.25 1001.29 1001.28 1001.53 1001.79 1002.08 1002.29 1002.41 1002.63 1002.71 1002.64 1003.21 1003.85 1004.25 1004.48 1004.80 1005.08 1005.33 1005.45 1005.57 1005.72 1006.12
1000.11 999.39 998.89 998.26 997.70 997.23 996.71 996.63 996.57 996.68 996.89 997.04 997.36 997.85 999.30 1000.32 1000.91 1000.63 1000.16 999.79 999.71 999.99 1000.11 1000.35 1000.53 1000.63 1000.74 1000.98 1001.09 1001.37 1001.77 1002.18 1002.69 1003.22 1003.66 1004.03 1004.25 1004.48 1004.77 1004.98 1005.07 1004.98 1005.20
1000.02 999.34 998.71 998.05 997.62 997.45 997.13 996.79 996.59 996.48 996.51 996.45 996.72 997.64 998.01 998.28 999.14 999.40 999.36 998.93 998.78 998.71 998.86 998.97 999.35 999.68 1000.01 1000.11 1000.36 1000.60 1001.14 1001.69 1002.18 1002.58 1002.92 1003.28 1003.66 1003.97 1004.07 1004.33 1004.43 1004.37 1004.35
1000.03 999.53 998.93 998.34 998.28 997.93 997.68 997.15 996.79 996.77 996.72 996.69 996.70 997.73 997.80 998.30 997.82 997.86 997.63 997.61 997.73 998.00 998.05 998.30 998.41 998.60 998.91 999.26 999.65 1000.27 1000.66 1001.10 1001.41 1001.71 1002.27 1002.55 1003.00 1003.32 1003.55 1003.77 1003.78 1003.95 1003.98
1000.36 999.89 999.65 999.30 998.77 998.39 998.05 997.54 997.44 997.31 997.26 997.04 996.95 996.84 997.39 997.66 997.58 997.72 997.74 996.72 996.48 996.93 997.42 997.72 997.80 997.96 998.09 998.38 998.63 999.01 999.31 1000.12 1000.34 1000.53 1001.03 1001.43 1001.71 1002.21 1002.47 1003.35 1004.01 1004.16 1003.72
1001.48 1001.35 1001.12 1000.66 999.93 999.21 998.95 998.61 998.27 998.25 998.08 997.79 997.43 997.18 997.04 997.02 997.13 997.28 997.47 997.30 997.67 996.98 997.32 997.34 997.63 998.58 999.03 999.76 1000.18 1000.60 1000.66 1000.76 1000.94 1000.45 1000.31 1000.74 1001.52 1001.50 1002.00 1003.39 1003.29 1002.96 1002.54
1003.18 1002.99 1002.65 1002.14 1001.57 1001.10 1000.45 999.71 999.66 999.65 999.43 998.84 998.38 997.66 997.36 997.24 997.42 997.44 997.18 997.35 998.08 997.78 998.38 998.89 998.93 999.52 999.58 999.61 1000.42 1001.10 1001.40 1000.62 1001.36 1001.24 1000.23 1000.12 1001.23 1001.42 1001.03 1001.72 1002.57 1002.05 1001.53
1004.02 1004.04 1003.83 1003.51 1003.12 1002.81 1002.44 1002.04 1001.66 1001.34 1000.97 1000.64 1000.34 999.96 999.51 999.10 999.07 998.98 999.03 998.95 998.91 999.05 999.84 999.93 999.77 999.98 999.52 1000.16 1001.35 1002.11 1000.91 1000.24 1000.84 1001.54 1000.71 1000.59 1000.63 1000.51 1000.87 1001.16 1001.15 1001.09 1001.15
Thickness
5834 5829 5824 5819 5815 5811 5804 5801 5799 5795 5791 5786 5782 5779 5777 5774 5771 5768 5764 5762 5760 5758 5757 5756 5755 5751 5745 5739 5731 5724 5717 5710 5702 5708 5710 5713 5712 5713 5714 5710 5708 5705 5699
5827 5822 5817 5813 5808 5802 5796 5793 5790 5784 5781 5776 5774 5769 5765 5764 5762 5758 5755 5753 5750 5749 5750 5747 5747 5741 5736 5729 5722 5716 5707 5703 5701 5701 5702 5704 5706 5706 5703 5697 5696 5694 5690
5821 5814 5808 5804 5800 5794 5790 5787 5785 5778 5774 5770 5764 5758 5754 5752 5751 5749 5747 5745 5743 5743 5740 5736 5733 5728 5723 5716 5711 5704 5700 5698 5699 5699 5696 5697 5697 5697 5693 5689 5688 5685 5684
5817 5808 5801 5797 5794 5789 5784 5778 5772 5766 5761 5760 5756 5749 5742 5739 5738 5737 5736 5735 5734 5731 5729 5726 5722 5715 5710 5706 5701 5696 5694 5694 5697 5693 5691 5689 5688 5684 5685 5680 5675 5675 5676
5811 5805 5797 5792 5788 5783 5776 5770 5763 5757 5750 5748 5743 5738 5731 5726 5725 5724 5723 5722 5722 5721 5720 5717 5712 5707 5702 5697 5693 5691 5685 5686 5688 5688 5687 5683 5679 5675 5673 5672 5671 5669 5672
5805 5796 5791 5784 5778 5773 5767 5757 5754 5748 5741 5735 5730 5725 5723 5720 5719 5714 5714 5713 5713 5710 5705 5703 5700 5696 5692 5688 5686 5688 5684 5680 5679 5677 5677 5674 5674 5670 5669 5668 5665 5662 5662
5795 5788 5782 5778 5771 5765 5755 5752 5743 5737 5731 5725 5719 5716 5716 5715 5712 5708 5704 5705 5703 5702 5697 5695 5693 5689 5686 5684 5684 5685 5684 5682 5683 5680 5677 5678 5674 5677 5674 5670 5667 5666 5672
5783 5778 5772 5769 5761 5757 5748 5741 5733 5726 5717 5712 5714 5710 5707 5706 5705 5702 5697 5696 5695 5695 5694 5693 5689 5687 5683 5682 5680 5681 5680 5680 5680 5682 5682 5683 5680 5680 5682 5680 5674 5671 5672
5770 5762 5759 5756 5748 5745 5741 5729 5720 5710 5709 5704 5707 5707 5705 5702 5699 5696 5691 5689 5687 5687 5687 5686 5685 5681 5679 5679 5679 5679 5678 5676 5679 5684 5685 5685 5686 5684 5684 5677 5670 5667 5665
5752 5751 5749 5744 5738 5735 5734 5720 5707 5683 5692 5696 5698 5702 5700 5700 5694 5690 5687 5687 5681 5679 5679 5677 5677 5676 5676 5676 5676 5678 5675 5675 5679 5680 5681 5684 5683 5683 5681 5679 5677 5670 5669
5742 5740 5737 5733 5728 5727 5727 5721 5701 5695 5697 5694 5692 5692 5691 5695 5692 5681 5678 5682 5679 5675 5673 5672 5673 5672 5672 5673 5673 5676 5676 5678 5677 5676 5675 5676 5677 5679 5678 5679 5680 5677 5672
5728 5726 5723 5721 5720 5716 5714 5714 5705 5693 5676 5682 5683 5682 5690 5692 5687 5675 5675 5673 5675 5673 5671 5673 5675 5673 5669 5670 5670 5672 5671 5673 5672 5673 5672 5672 5674 5676 5678 5678 5677 5676 5674
5717 5714 5712 5711 5710 5708 5702 5701 5694 5686 5684 5684 5679 5685 5689 5690 5687 5679 5673 5669 5669 5672 5672 5673 5672 5670 5668 5667 5666 5667 5668 5670 5670 5671 5672 5674 5677 5678 5678 5676 5677 5674 5675
5705 5704 5703 5698 5696 5695 5693 5692 5689 5685 5683 5684 5681 5680 5688 5688 5684 5678 5672 5670 5668 5667 5669 5668 5669 5667 5669 5670 5666 5664 5668 5671 5671 5673 5675 5680 5679 5677 5675 5675 5672 5671 5668
5699 5698 5694 5690 5687 5687 5686 5683 5680 5687 5688 5686 5683 5683 5684 5684 5685 5679 5676 5673 5671 5667 5667 5667 5666 5665 5665 5668 5668 5667 5667 5671 5673 5676 5678 5680 5680 5679 5677 5677 5671 5667 5662
5689 5689 5687 5684 5683 5681 5681 5681 5681 5682 5684 5680 5679 5678 5690 5692 5683 5677 5674 5672 5669 5665 5665 5666 5665 5667 5668 5669 5670 5668 5669 5671 5675 5676 5677 5678 5677 5677 5676 5676 5674 5667 5661
5684 5683 5683 5681 5681 5681 5683 5677 5670 5671 5671 5672 5675 5676 5682 5682 5680 5676 5671 5668 5665 5662 5665 5665 5665 5667 5669 5670 5670 5670 5670 5672 5677 5677 5675 5675 5674 5674 5674 5673 5672 5670 5665
5681 5681 5681 5680 5681 5681 5680 5675 5672 5666 5669 5672 5669 5673 5675 5671 5674 5673 5667 5663 5659 5658 5664 5666 5665 5668 5669 5669 5672 5674 5675 5675 5675 5675 5674 5674 5672 5669 5667 5666 5668 5667 5666
5677 5675 5677 5678 5680 5679 5681 5676 5677 5672 5670 5673 5683 5670 5666 5663 5662 5665 5666 5671 5666 5664 5666 5670 5670 5670 5670 5672 5674 5675 5677 5679 5677 5674 5672 5670 5669 5667 5664 5664 5665 5664 5662
5671 5673 5673 5677 5677 5678 5680 5678 5678 5678 5677 5677 5675 5674 5663 5654 5651 5659 5667 5671 5672 5670 5671 5670 5672 5674 5676 5677 5679 5679 5677 5675 5672 5668 5666 5664 5664 5664 5662 5661 5662 5663 5663
5668 5669 5669 5674 5674 5672 5673 5675 5677 5677 5677 5676 5673 5666 5665 5658 5662 5660 5665 5670 5672 5674 5675 5676 5674 5674 5674 5676 5676 5676 5674 5670 5668 5666 5663 5663 5662 5659 5661 5660 5659 5661 5664
5663 5663 5665 5665 5664 5664 5664 5667 5670 5670 5671 5671 5671 5659 5659 5653 5665 5667 5672 5674 5672 5671 5672 5672 5673 5674 5674 5672 5670 5668 5665 5664 5664 5662 5660 5658 5657 5658 5658 5657 5658 5656 5657
5655 5657 5656 5656 5655 5655 5657 5661 5662 5662 5663 5664 5664 5665 5660 5658 5660 5661 5662 5675 5674 5670 5669 5669 5670 5671 5671 5671 5670 5666 5666 5666 5665 5664 5660 5659 5660 5657 5658 5648 5641 5640 5648
5642 5640 5640 5641 5645 5650 5649 5648 5651 5650 5650 5653 5656 5658 5658 5659 5657 5657 5658 5658 5656 5663 5663 5664 5662 5657 5655 5650 5648 5647 5649 5649 5653 5658 5659 5658 5648 5650 5650 5635 5630 5631 5646
5622 5622 5622 5624 5627 5629 5634 5639 5636 5634 5635 5639 5642 5648 5651 5651 5650 5650 5649 5647 5641 5649 5645 5641 5641 5636 5638 5639 5634 5632 5631 5638 5635 5634 5651 5653 5646 5645 5650 5643 5637 5642 5649
5612 5608 5607 5607 5607 5607 5608 5610 5612 5614 5616 5617 5619 5618 5623 5625 5625 5625 5627 5627 5627 5626 5621 5622 5622 5620 5625 5621 5613 5611 5622 5626 5626 5621 5634 5635 5637 5641 5639 5637 5639 5641 5641